Location: ?
(35.4214°N, 139.3011°E)
Time: 21:27:44
(UTC+00:00)

Gbstr 26 Del rocket - Pass Details

Date: 14 July 2020
Orbit: 492 x 1264 km, 51.8° (Epoch: 10 August)

Event Time Altitude Azimuth Distance (km) Brightness Sun altitude
Rises 11:38:28 0° 246° (WSW) 2,697 6.6 -17.4°
Reaches altitude 10° 11:40:52 10° 255° (WSW) 1,745 5.8 -17.7°
Maximum altitude 11:44:27 36° 323° (NW) 792 4.2 -18.2°
Drops below altitude 10° 11:47:56 10° 33° (NNE) 1,688 5.5 -18.7°
Sets 11:50:14 0° 42° (NE) 2,596 6.3 -19.0°
